Weather History for Beaumont, TX

Change the Weather History Date:

Tuesday, August 12, 2014

  Actual Average Record
Temperature  
Mean Temperature 86 °F 83 °F  
Max Temperature 95 °F 93 °F 103 °F (1962)
Min Temperature 76 °F 74 °F 62 °F (1967)
Degree Days  
Heating Degree Days 0 0  
Month to date heating degree days 0 0  
Since 1 June heating degree days 0 0  
Since 1 July heating degree days 0 0  
Cooling Degree Days 21 18  
Month to date cooling degree days 225 216  
Year to date cooling degree days 1781 1822  
Since 1 June cooling degree days 1287 1256  
Growing Degree Days 35 (Base 50)    
Moisture  
Dew Point 72 °F    
Average Humidity 67    
Maximum Humidity 94    
Minimum Humidity 39    
Precipitation  
Precipitation 0.00 in 0.16 in 3.88 in (1909)
Month to date precipitation 0.46 2.02  
Year to date precipitation 30.66 35.87  
Snow  
Snow 0.00 in 0.00 in 0.00 in ()
Month to date snowfall 0.0 0.0  
Since 1 June snowfall 0.0 0.0  
Since 1 July snowfall 0.0 0.0  
Snow Depth 0.00 in    
Sea Level Pressure  
Sea Level Pressure 29.97 in    
Wind  
Wind Speed 7 mph (NNW)    
Max Wind Speed 16 mph    
Max Gust Speed 22 mph    
Visibility 10 miles    
Events      
T = Trace of Precipitation, MM = Missing Value Source: NWS Daily Summary

Daily Weather History Graph

Daily Weather History Graph

Search for Another Location

Airport:

Trip Planner

Search our weather history database for the weather conditions in past years. The results will help you decide how hot, cold, wet, or windy it might be!

Date:

Astronomy

Aug. 12, 2014 Rise Set
Actual Time 6:41 AM CDT 7:59 PM CDT
Civil Twilight 6:16 AM CDT 8:25 PM CDT
Nautical Twilight 5:46 AM CDT 8:55 PM CDT
Astronomical Twilight 5:15 AM CDT 9:26 PM CDT
Moon 9:23 PM CDT (8/12) 8:46 AM CDT (8/12)
Length of Visible Light 14h 08m
Length of Day
13h 18m
Waning Gibbous, 94% of the Moon is Illuminated
Aug 12
Waning Gibbous
Aug 17
Last Quarter
Aug 25
New
Sep 2
First Quarter
Sep 8
Full

Hourly Weather History & Observations

Time (CDT) Temp. Heat Index Dew Point Humidity Pressure Visibility Wind Dir Wind Speed Gust Speed Precip Events Conditions
12:53 AM 75.9 °F - 73.9 °F 94% 30.02 in 10.0 mi East 5.8 mph - 0.00 in   Partly Cloudy
1:53 AM 75.9 °F - 73.9 °F 94% 30.00 in 10.0 mi WSW 5.8 mph - N/A   Clear
2:53 AM 77.0 °F - 75.0 °F 94% 29.97 in 10.0 mi Calm Calm - N/A   Clear
3:53 AM 77.0 °F - 75.2 °F 94% 29.97 in 10.0 mi West 3.5 mph - N/A   Clear
4:53 AM 75.9 °F - 73.9 °F 94% 29.98 in 10.0 mi WNW 5.8 mph - N/A   Scattered Clouds
5:53 AM 75.9 °F - 73.9 °F 94% 29.99 in 10.0 mi WNW 3.5 mph - N/A   Clear
6:53 AM 75.9 °F - 73.0 °F 91% 30.00 in 10.0 mi WNW 6.9 mph - N/A   Mostly Cloudy
7:53 AM 77.0 °F - 73.9 °F 90% 30.00 in 10.0 mi NW 6.9 mph - N/A   Mostly Cloudy
8:53 AM 82.0 °F 87.9 °F 73.9 °F 76% 30.01 in 10.0 mi NW 6.9 mph - N/A   Clear
9:53 AM 84.9 °F 93.3 °F 75.0 °F 72% 30.01 in 10.0 mi NW 9.2 mph - N/A   Clear
10:53 AM 89.1 °F 99.1 °F 75.0 °F 63% 30.01 in 10.0 mi NW 11.5 mph - N/A   Clear
12:53 PM 91.9 °F 99.5 °F 72.0 °F 52% 29.99 in 10.0 mi North 10.4 mph 19.6 mph N/A   Scattered Clouds
1:53 PM 93.0 °F 100.1 °F 71.1 °F 49% 29.98 in 10.0 mi North 12.7 mph 19.6 mph N/A   Scattered Clouds
2:53 PM 95.0 °F 101.3 °F 70.0 °F 44% 29.97 in 10.0 mi NNW 10.4 mph - N/A   Partly Cloudy
3:53 PM 93.9 °F 98.6 °F 68.0 °F 43% 29.94 in 10.0 mi North 13.8 mph - N/A   Clear
4:53 PM 93.9 °F 97.0 °F 66.0 °F 40% 29.93 in 10.0 mi North 12.7 mph - N/A   Clear
5:53 PM 93.0 °F 95.0 °F 64.9 °F 39% 29.92 in 10.0 mi NNW 10.4 mph - N/A   Clear
6:53 PM 91.4 °F 94.0 °F 66.2 °F 43% 29.91 in 10.0 mi NNW 6.9 mph - N/A   Clear
7:53 PM 87.1 °F 91.3 °F 69.1 °F 55% 29.91 in 10.0 mi North 3.5 mph - N/A   Clear
8:53 PM 82.9 °F 86.5 °F 69.1 °F 63% 29.93 in 10.0 mi North 5.8 mph - N/A   Clear
9:53 PM 80.1 °F 83.6 °F 71.1 °F 74% 29.96 in 10.0 mi Calm Calm - N/A   Clear
10:53 PM 78.1 °F - 71.1 °F 79% 29.96 in 10.0 mi Calm Calm - N/A   Clear
11:53 PM 80.1 °F 83.8 °F 72.0 °F 76% 29.97 in 10.0 mi NNE 5.8 mph - N/A   Clear